Showing default

FLOCK 4Q 25, 58303

Orbit data source: Space-Track

FLOCK 4Q 25, 58303 is a payload satellite owned by Planet (US) in SSO that was launched on Sat, 11 Nov 2023 UTC via an FALCON 9 launch vehicle from the Air Force Western Test Range (AFWTR). Payload-class satellites include a variety of spacecraft equipped with specific instruments for various scientific and technological missions. These include communications satellites like Starlink; space stations such as the ISS; scientific satellites like the Hubble; Earth observation satellites from companies like Planet Labs, Umbra, and HawkEye 360; GPS; miniature CubeSats for education and research; and military/defense satellites.

Loading next visibility...
Identifier
58303, 2023-174AZ
Orbit
SSO
Country
Flag of USUS
Related business
Manufacturer
Planet
Mission
Operational Commercial Imaging
Bus & Motor
CUBESAT 3U, Unknown motor
Mass
5.7 kg wet, 5.7 kg dry
Launch date (UTC)
2023-11-11 (2 years ago)
Launch vehicle
FALCON 9
Launch site
Air Force Western Test Range (AFWTR)
Object type
Payload
Rocket body
Debris
Shape & HBR
Box + 2 Pan, 1.0 m
Radar Cross Section
0.072 m², Medium (>0.1 m² and < 1m²)

Expand to show TLE details & history
Last TLE update: 7 hours ago

TLE from 7 hours ago
0 FLOCK 4Q 25
1 58303U 23174AZ  25289.14593795  .00030477  00000-0  67936-3 0  9990
2 58303  97.4036  10.5180 0005325 296.0528  64.0171 15.43525078108088
Epoch: 2025-10-16T03:30Z
TLE epoch observation values (Epoch: 2025-10-16T03:30:09.038Z)
Latitude
-0.00008°
Longitude
-66.9295°
Altitude
437.249 km
Speed
7.65 km/s
True Right ascension
00h 42m 04s
True Declination
0° 00' 00"
Sunlit
Object was in full shadow at epoch
Visualization orbit readout
Latitude
Unknown
Longitude
Unknown
Altitude
Unknown
Speed
Unknown
Apparent Right ascension
Unknown
Apparent Declination
Unknown
Sunlit
N/A
Visualization observer readout
Local Sidereal Time
05:39:22
Azimuth
Unknown
Elevation
Unknown
Doppler factor
Unknown
Orbital elements
Apogee altitude
436.276 km
Perigee altitude
429.023 km
Semi-major axis
6,810.787 km
Eccentricity
0.00053
Inclination
97.4036°
RAAN
10.518°
Arg. of periapsis
296.0528°
True anomaly
64.07197°
Mean anomaly
64.0171°
Eccentric anomaly
64.04453°
Mean motion
3.86142 °/min
Orbital period
93.23 mins
BSTAR
0.00067936
Loading maneuver chart data...
Computing Atmospheric mass density...

Documentation

Showing up to 5 results
|